Private Wetterstation Wechselburg
Wetterdaten: Samstag, 30.01.2010
Datum Zeit Temp. +2m Bodentemp. Temp.+5cm Temp. Wind Windchill X Diff Temp. Feuchte +2m Feuchte +5cm Sonnenschein Luftdruck Regen Wind Richtung Richtung Sonnenschein UV Taupunkt Windchill Windben
30.01.2010 00:00 1,1 C 1,2 C 0,9 C 0,5 C -0,7 C 0,0 C 90 % 95 % 0 % 980,6 hPa 0,7 l/m 4,3 km/h (1 Bft) SW 225 0 min 0,0 UV-I -0,4 C -0,7 C 7,7 km/h (2 Bft)
30.01.2010 00:10 1,1 C 1,2 C 0,8 C 0,3 C -1,2 C 0,0 C 90 % 95 % 0 % 980,6 hPa 0,0 l/m 5,5 km/h (1 Bft) SW 225 0 min 0,0 UV-I -0,4 C -3,2 C 6,6 km/h (2 Bft)
30.01.2010 00:15 1,0 C 1,2 C 0,8 C 0,1 C -1,8 C 0,0 C 90 % 95 % 0 % 980,6 hPa 0,0 l/m 6,8 km/h (2 Bft) SW 225 0 min 0,0 UV-I -0,5 C -4,4 C 13,8 km/h (3 Bft)
30.01.2010 00:20 1,1 C 1,2 C 0,8 C 0,3 C -2,2 C 0,0 C 91 % 95 % 0 % 980,9 hPa 0,0 l/m 8,0 km/h (2 Bft) SW 225 0 min 0,0 UV-I -0,2 C -5,3 C 8,2 km/h (2 Bft)
30.01.2010 00:25 1,1 C 1,2 C 0,8 C 0,0 C -2,1 C 0,0 C 91 % 95 % 0 % 980,9 hPa 0,0 l/m 7,6 km/h (2 Bft) NO 45 0 min 0,0 UV-I -0,2 C -5,1 C 10,3 km/h (2 Bft)
30.01.2010 00:30 1,0 C 1,2 C 0,8 C 0,0 C -1,9 C 0,0 C 91 % 95 % 0 % 980,9 hPa 0,0 l/m 7,1 km/h (2 Bft) S-SO 157 0 min 0,0 UV-I -0,3 C -4,6 C 2,9 km/h (1 Bft)
30.01.2010 00:35 1,0 C 1,2 C 0,7 C 0,3 C -2,3 C 0,0 C 91 % 95 % 0 % 980,9 hPa 0,0 l/m 8,4 km/h (2 Bft) SW 225 0 min 0,0 UV-I -0,3 C -5,6 C 17,5 km/h (3 Bft)
30.01.2010 00:40 0,9 C 1,2 C 0,6 C 0,1 C -2,4 C 0,0 C 91 % 95 % 0 % 981,1 hPa 0,0 l/m 8,9 km/h (2 Bft) SW 225 0 min 0,0 UV-I -0,4 C -5,9 C 9,5 km/h (2 Bft)
30.01.2010 00:45 0,9 C 1,2 C 0,6 C 0,1 C -2,7 C 0,0 C 91 % 95 % 0 % 981,1 hPa 0,0 l/m 10,1 km/h (2 Bft) SW 225 0 min 0,0 UV-I -0,4 C -6,6 C 19,8 km/h (3 Bft)
30.01.2010 00:50 0,8 C 1,2 C 0,5 C -0,1 C -3,2 C 0,0 C 90 % 95 % 0 % 981,1 hPa 0,0 l/m 11,1 km/h (2 Bft) W-SW 247 0 min 0,0 UV-I -0,6 C -7,4 C 12,7 km/h (3 Bft)
30.01.2010 00:55 0,8 C 1,2 C 0,4 C -0,2 C -3,4 C 0,0 C 90 % 95 % 0 % 981,1 hPa 0,0 l/m 11,7 km/h (2 Bft) W-SW 247 0 min 0,0 UV-I -0,6 C -7,8 C 16,1 km/h (3 Bft)
30.01.2010 01:00 0,8 C 1,2 C 0,4 C -0,6 C -3,4 C 0,0 C 90 % 95 % 0 % 981,2 hPa 0,0 l/m 11,6 km/h (2 Bft) S 180 0 min 0,0 UV-I -0,6 C -7,8 C 11,9 km/h (2 Bft)
30.01.2010 01:10 0,8 C 1,2 C 0,4 C -0,1 C -2,9 C 0,0 C 90 % 95 % 0 % 981,2 hPa 0,0 l/m 9,8 km/h (2 Bft) NO 45 0 min 0,0 UV-I -0,6 C -6,7 C 9,2 km/h (2 Bft)
30.01.2010 01:15 0,8 C 1,2 C 0,4 C -0,1 C -3,0 C 0,0 C 90 % 95 % 0 % 981,2 hPa 0,0 l/m 10,1 km/h (2 Bft) S-SO 157 0 min 0,0 UV-I -0,6 C -6,9 C 16,3 km/h (3 Bft)
30.01.2010 01:20 0,7 C 1,2 C 0,4 C -0,5 C -3,0 C 0,0 C 90 % 95 % 0 % 981,8 hPa 0,0 l/m 10,1 km/h (2 Bft) SW 225 0 min 0,0 UV-I -0,7 C -6,9 C 9,7 km/h (2 Bft)
30.01.2010 01:25 0,7 C 1,2 C 0,3 C -0,2 C -3,1 C 0,0 C 90 % 95 % 0 % 981,8 hPa 0,0 l/m 10,3 km/h (2 Bft) SW 225 0 min 0,0 UV-I -0,7 C -7,1 C 11,6 km/h (2 Bft)
30.01.2010 01:30 0,7 C 1,2 C 0,3 C -0,2 C -2,9 C 0,0 C 90 % 95 % 0 % 981,8 hPa 0,0 l/m 9,8 km/h (2 Bft) W-SW 247 0 min 0,0 UV-I -0,7 C -6,7 C 16,6 km/h (3 Bft)
30.01.2010 01:35 0,7 C 1,2 C 0,3 C -0,2 C -3,1 C 0,0 C 90 % 95 % 0 % 981,8 hPa 0,0 l/m 10,3 km/h (2 Bft) W-SW 247 0 min 0,0 UV-I -0,7 C -7,1 C 14,3 km/h (3 Bft)
30.01.2010 01:40 0,6 C 1,2 C 0,3 C -0,3 C -3,3 C 0,0 C 90 % 95 % 0 % 982,4 hPa 0,0 l/m 10,8 km/h (2 Bft) SW 225 0 min 0,0 UV-I -0,8 C -7,5 C 19,3 km/h (3 Bft)
30.01.2010 01:45 0,7 C 1,2 C 0,2 C -0,2 C -3,0 C 0,0 C 90 % 95 % 0 % 982,4 hPa 0,0 l/m 9,8 km/h (2 Bft) S-SW 202 0 min 0,0 UV-I -0,7 C -6,8 C 7,1 km/h (2 Bft)
30.01.2010 01:50 0,7 C 1,2 C 0,3 C -0,2 C -3,1 C 0,0 C 90 % 95 % 0 % 982,4 hPa 0,0 l/m 10,3 km/h (2 Bft) S-SW 202 0 min 0,0 UV-I -0,7 C -7,1 C 12,2 km/h (2 Bft)
30.01.2010 01:55 0,6 C 1,2 C 0,3 C -0,3 C -3,3 C 0,0 C 90 % 95 % 0 % 982,4 hPa 0,0 l/m 10,6 km/h (2 Bft) S 180 0 min 0,0 UV-I -0,8 C -7,4 C 21,1 km/h (4 Bft)
30.01.2010 02:00 0,5 C 1,2 C 0,2 C -0,4 C -3,6 C 0,0 C 90 % 95 % 0 % 981,9 hPa 0,0 l/m 11,4 km/h (2 Bft) S-SW 202 0 min 0,0 UV-I -0,9 C -8,0 C 16,3 km/h (3 Bft)
30.01.2010 02:10 0,4 C 1,2 C 0,1 C -0,9 C -3,6 C 0,0 C 90 % 95 % 0 % 981,9 hPa 0,0 l/m 11,1 km/h (2 Bft) W-SW 247 0 min 0,0 UV-I -1,0 C -7,9 C 22,2 km/h (4 Bft)
30.01.2010 02:15 0,4 C 1,2 C 0,0 C -0,6 C -3,9 C 0,0 C 89 % 94 % 0 % 981,9 hPa 0,0 l/m 12,1 km/h (2 Bft) SW 225 0 min 0,0 UV-I -1,2 C -8,6 C 27,0 km/h (4 Bft)
30.01.2010 02:20 0,4 C 1,2 C 0,1 C -0,6 C -4,1 C 0,0 C 89 % 94 % 0 % 981,9 hPa 0,0 l/m 12,4 km/h (3 Bft) SW 225 0 min 0,0 UV-I -1,2 C -8,9 C 9,3 km/h (2 Bft)
30.01.2010 02:25 0,3 C 1,3 C -0,1 C -0,7 C -4,0 C 0,0 C 89 % 94 % 0 % 981,9 hPa 0,0 l/m 11,3 km/h (2 Bft) SW 225 0 min 0,0 UV-I -1,3 C -8,5 C 21,7 km/h (4 Bft)
30.01.2010 02:30 0,3 C 1,3 C -0,1 C -1,1 C -4,0 C 0,0 C 88 % 94 % 0 % 981,9 hPa 0,0 l/m 11,3 km/h (2 Bft) SW 225 0 min 0,0 UV-I -1,4 C -8,5 C 14,0 km/h (3 Bft)
30.01.2010 02:35 0,3 C 1,3 C -0,1 C -0,7 C -4,2 C 0,0 C 88 % 94 % 0 % 981,9 hPa 0,0 l/m 12,4 km/h (3 Bft) SW 225 0 min 0,0 UV-I -1,4 C -9,0 C 9,3 km/h (2 Bft)
30.01.2010 02:40 0,3 C 1,3 C -0,1 C -1,2 C -4,2 C 0,0 C 87 % 93 % 0 % 982,5 hPa 0,0 l/m 11,6 km/h (2 Bft) W-NW 292 0 min 0,0 UV-I -1,6 C -8,8 C 14,0 km/h (3 Bft)
30.01.2010 02:45 0,3 C 1,3 C -0,1 C -0,7 C -3,8 C 0,0 C 87 % 93 % 0 % 982,5 hPa 0,0 l/m 10,3 km/h (2 Bft) SW 225 0 min 0,0 UV-I -1,6 C -7,9 C 8,0 km/h (2 Bft)
30.01.2010 02:50 0,3 C 1,3 C -0,1 C -0,7 C -3,9 C 0,0 C 87 % 93 % 0 % 982,5 hPa 0,0 l/m 10,6 km/h (2 Bft) W-SW 247 0 min 0,0 UV-I -1,6 C -8,1 C 13,0 km/h (3 Bft)
30.01.2010 02:55 0,3 C 1,3 C -0,3 C -0,7 C -3,7 C 0,0 C 87 % 93 % 0 % 982,5 hPa 0,0 l/m 9,3 km/h (2 Bft) W-SW 247 0 min 0,0 UV-I -1,6 C -7,5 C 7,9 km/h (2 Bft)
30.01.2010 03:00 0,3 C 1,3 C -0,3 C -0,7 C -3,5 C 0,0 C 87 % 93 % 0 % 982,6 hPa 0,0 l/m 8,7 km/h (2 Bft) SW 225 0 min 0,0 UV-I -1,6 C -7,1 C 10,1 km/h (2 Bft)
30.01.2010 03:10 0,3 C 1,3 C -0,1 C -0,6 C -3,7 C 0,0 C 87 % 93 % 0 % 982,6 hPa 0,0 l/m 9,7 km/h (2 Bft) S-SW 202 0 min 0,0 UV-I -1,6 C -7,6 C 13,7 km/h (3 Bft)
30.01.2010 03:15 0,2 C 1,3 C -0,1 C -0,8 C -4,2 C 0,0 C 87 % 93 % 0 % 982,6 hPa 0,0 l/m 11,4 km/h (2 Bft) S 180 0 min 0,0 UV-I -1,7 C -8,7 C 13,8 km/h (3 Bft)
30.01.2010 03:20 0,3 C 1,3 C -0,2 C -1,2 C -4,2 C 0,0 C 87 % 93 % 0 % 983,1 hPa 0,0 l/m 12,1 km/h (2 Bft) SW 225 0 min 0,0 UV-I -1,6 C -8,9 C 14,0 km/h (3 Bft)
30.01.2010 03:25 0,3 C 1,2 C -0,2 C -0,8 C -4,3 C 0,0 C 87 % 92 % 0 % 983,1 hPa 0,0 l/m 12,9 km/h (3 Bft) SW 225 0 min 0,0 UV-I -1,6 C -9,2 C 19,8 km/h (3 Bft)
30.01.2010 03:30 0,3 C 1,1 C -0,1 C -0,8 C -4,7 C 0,0 C 86 % 91 % 0 % 983,1 hPa 0,0 l/m 14,2 km/h (3 Bft) SW 225 0 min 0,0 UV-I -1,8 C -10,0 C 18,8 km/h (3 Bft)
30.01.2010 03:35 0,2 C 1,1 C -0,1 C -1,4 C -4,7 C 0,0 C 85 % 91 % 0 % 983,1 hPa 0,0 l/m 14,0 km/h (3 Bft) S-SW 202 0 min 0,0 UV-I -2,0 C -10,0 C 27,4 km/h (4 Bft)
30.01.2010 03:40 0,1 C 1,0 C -0,3 C -1,0 C -4,8 C 0,0 C 83 % 89 % 0 % 983,2 hPa 0,0 l/m 13,8 km/h (3 Bft) W-SW 247 0 min 0,0 UV-I -2,4 C -10,1 C 9,5 km/h (2 Bft)
30.01.2010 03:45 0,1 C 1,0 C -0,3 C -1,5 C -4,8 C 0,0 C 82 % 89 % 0 % 983,2 hPa 0,0 l/m 13,7 km/h (3 Bft) W-SW 247 0 min 0,0 UV-I -2,6 C -10,0 C 13,7 km/h (3 Bft)
30.01.2010 03:50 0,1 C 1,0 C -0,3 C -1,1 C -4,9 C 0,0 C 83 % 89 % 0 % 983,2 hPa 0,0 l/m 13,4 km/h (3 Bft) W-SW 247 0 min 0,0 UV-I -2,4 C -10,1 C 12,9 km/h (3 Bft)
30.01.2010 03:55 0,0 C 1,0 C -0,4 C -1,1 C -4,7 C 0,0 C 82 % 89 % 0 % 983,2 hPa 0,0 l/m 12,6 km/h (3 Bft) S 180 0 min 0,0 UV-I -2,7 C -9,6 C 14,2 km/h (3 Bft)
30.01.2010 04:00 0,0 C 1,0 C -0,4 C -1,1 C -4,5 C 0,0 C 82 % 89 % 0 % 983,9 hPa 0,0 l/m 11,7 km/h (2 Bft) SW 225 0 min 0,0 UV-I -2,7 C -9,2 C 14,0 km/h (3 Bft)
30.01.2010 04:10 0,0 C 1,0 C -0,4 C -1,5 C -4,5 C 0,0 C 82 % 88 % 0 % 983,9 hPa 0,0 l/m 11,7 km/h (2 Bft) W-SW 247 0 min 0,0 UV-I -2,7 C -9,2 C 12,6 km/h (3 Bft)
30.01.2010 04:15 -0,1 C 1,0 C -0,3 C -1,2 C -4,8 C 0,0 C 81 % 88 % 0 % 983,9 hPa 0,0 l/m 12,4 km/h (3 Bft) SW 225 0 min 0,0 UV-I -3,0 C -9,7 C 23,8 km/h (4 Bft)
30.01.2010 04:20 -0,1 C 1,0 C -0,5 C -1,2 C -4,7 C 0,0 C 82 % 88 % 0 % 984,0 hPa 0,0 l/m 11,6 km/h (2 Bft) SW 225 0 min 0,0 UV-I -2,8 C -9,4 C 10,8 km/h (2 Bft)
30.01.2010 04:25 -0,1 C 1,0 C -0,5 C -1,2 C -4,5 C 0,0 C 81 % 88 % 0 % 984,0 hPa 0,0 l/m 10,5 km/h (2 Bft) SW 225 0 min 0,0 UV-I -3,0 C -8,8 C 16,6 km/h (3 Bft)
30.01.2010 04:30 -0,1 C 1,0 C -0,5 C -1,2 C -4,7 C 0,0 C 80 % 87 % 0 % 984,0 hPa 0,0 l/m 11,3 km/h (2 Bft) SW 225 0 min 0,0 UV-I -3,1 C -9,3 C 21,7 km/h (4 Bft)
30.01.2010 04:35 -0,1 C 1,0 C -0,5 C -1,2 C -4,9 C 0,0 C 80 % 86 % 0 % 984,0 hPa 0,0 l/m 11,7 km/h (2 Bft) W-SW 247 0 min 0,0 UV-I -3,1 C -9,7 C 13,0 km/h (3 Bft)
30.01.2010 04:40 -0,1 C 1,0 C -0,7 C -1,7 C -4,9 C 0,0 C 80 % 86 % 0 % 984,2 hPa 0,0 l/m 11,1 km/h (2 Bft) SW 225 0 min 0,0 UV-I -3,1 C -9,5 C 16,9 km/h (3 Bft)
30.01.2010 04:45 -0,3 C 0,9 C -0,8 C -1,8 C -4,9 C 0,0 C 79 % 86 % 0 % 984,2 hPa 0,0 l/m 10,9 km/h (2 Bft) SW 225 0 min 0,0 UV-I -3,5 C -9,4 C 12,2 km/h (2 Bft)
30.01.2010 04:50 -0,3 C 0,9 C -0,8 C -1,4 C -4,8 C 0,0 C 79 % 86 % 0 % 984,2 hPa 0,0 l/m 10,8 km/h (2 Bft) SW 225 0 min 0,0 UV-I -3,5 C -9,3 C 15,0 km/h (3 Bft)
30.01.2010 04:55 -0,4 C 0,9 C -0,9 C -1,5 C -5,3 C 0,0 C 78 % 84 % 0 % 984,2 hPa 0,0 l/m 12,2 km/h (2 Bft) W-SW 247 0 min 0,0 UV-I -3,8 C -10,3 C 21,7 km/h (4 Bft)
30.01.2010 05:00 -0,4 C 0,9 C -0,9 C -1,6 C -5,7 C 0,0 C 77 % 84 % 0 % 984,9 hPa 0,0 l/m 13,8 km/h (3 Bft) W-SW 247 0 min 0,0 UV-I -3,9 C -11,2 C 15,0 km/h (3 Bft)
30.01.2010 05:10 -0,5 C 0,9 C -0,9 C -1,7 C -5,6 C 0,0 C 76 % 83 % 0 % 984,9 hPa 0,0 l/m 12,9 km/h (3 Bft) W-SW 247 0 min 0,0 UV-I -4,2 C -10,8 C 16,1 km/h (3 Bft)
30.01.2010 05:15 -0,5 C 0,9 C -0,9 C -1,7 C -5,2 C 0,0 C 76 % 83 % 0 % 984,9 hPa 0,0 l/m 11,4 km/h (2 Bft) SW 225 0 min 0,0 UV-I -4,2 C -9,9 C 12,1 km/h (2 Bft)
30.01.2010 05:20 -0,5 C 0,9 C -1,0 C -1,7 C -5,4 C 0,0 C 76 % 83 % 0 % 984,7 hPa 0,0 l/m 11,6 km/h (2 Bft) W-SW 247 0 min 0,0 UV-I -4,2 C -10,2 C 20,3 km/h (4 Bft)
30.01.2010 05:25 -0,6 C 0,9 C -0,9 C -1,8 C -5,6 C 0,0 C 75 % 82 % 0 % 984,7 hPa 0,0 l/m 13,0 km/h (3 Bft) S 180 0 min 0,0 UV-I -4,5 C -10,8 C 22,4 km/h (4 Bft)
30.01.2010 05:30 -0,5 C 0,9 C -1,0 C -1,7 C -5,7 C 0,0 C 75 % 83 % 0 % 984,7 hPa 0,0 l/m 13,5 km/h (3 Bft) W-SW 247 0 min 0,0 UV-I -4,4 C -11,1 C 11,9 km/h (2 Bft)
30.01.2010 05:35 -0,5 C 0,9 C -0,9 C -2,2 C -5,7 C 0,0 C 75 % 82 % 0 % 984,7 hPa 0,0 l/m 13,4 km/h (3 Bft) S-SW 202 0 min 0,0 UV-I -4,4 C -11,1 C 31,4 km/h (5 Bft)
30.01.2010 05:40 -0,5 C 0,9 C -1,0 C -1,7 C -5,6 C 0,0 C 75 % 82 % 0 % 985,0 hPa 0,0 l/m 13,0 km/h (3 Bft) SW 225 0 min 0,0 UV-I -4,4 C -10,8 C 16,9 km/h (3 Bft)
30.01.2010 05:45 -0,6 C 0,9 C -0,9 C -1,8 C -5,5 C 0,0 C 75 % 82 % 0 % 985,0 hPa 0,0 l/m 12,9 km/h (3 Bft) W-NW 292 0 min 0,0 UV-I -4,5 C -10,7 C 14,0 km/h (3 Bft)
30.01.2010 05:50 -0,5 C 0,9 C -1,0 C -1,7 C -5,2 C 0,0 C 75 % 82 % 0 % 985,0 hPa 0,0 l/m 11,6 km/h (2 Bft) SW 225 0 min 0,0 UV-I -4,4 C -10,0 C 11,1 km/h (2 Bft)
30.01.2010 05:55 -0,5 C 0,9 C -0,9 C -2,1 C -5,2 C 0,0 C 76 % 83 % 0 % 985,0 hPa 0,0 l/m 11,3 km/h (2 Bft) W 270 0 min 0,0 UV-I -4,2 C -9,9 C 11,7 km/h (2 Bft)
30.01.2010 06:00 -0,7 C 0,9 C -0,9 C -1,8 C -5,5 C 0,0 C 76 % 83 % 0 % 984,8 hPa 0,0 l/m 12,1 km/h (2 Bft) SW 225 0 min 0,0 UV-I -4,4 C -10,5 C 15,9 km/h (3 Bft)
30.01.2010 06:10 -0,7 C 0,9 C -1,1 C -1,9 C -5,3 C 0,0 C 77 % 83 % 0 % 984,8 hPa 0,0 l/m 9,8 km/h (2 Bft) W-SW 247 0 min 0,0 UV-I -4,2 C -9,6 C 10,0 km/h (2 Bft)
30.01.2010 06:15 -0,9 C 0,9 C -1,3 C -2,0 C -5,7 C 0,0 C 77 % 83 % 0 % 984,8 hPa 0,0 l/m 11,3 km/h (2 Bft) SW 225 0 min 0,0 UV-I -4,4 C -10,5 C 14,2 km/h (3 Bft)
30.01.2010 06:20 -0,9 C 0,9 C -1,3 C -2,1 C -5,9 C 0,0 C 77 % 83 % 0 % 985,2 hPa 0,0 l/m 11,9 km/h (2 Bft) SW 225 0 min 0,0 UV-I -4,4 C -10,9 C 15,9 km/h (3 Bft)
30.01.2010 06:25 -0,9 C 0,9 C -1,3 C -2,6 C -5,9 C 0,0 C 77 % 83 % 0 % 985,2 hPa 0,0 l/m 11,7 km/h (2 Bft) S-SO 157 0 min 0,0 UV-I -4,4 C -10,9 C 13,5 km/h (3 Bft)
30.01.2010 06:30 -0,9 C 0,9 C -1,3 C -2,1 C -5,8 C 0,0 C 77 % 83 % 0 % 985,2 hPa 0,0 l/m 11,6 km/h (2 Bft) SW 225 0 min 0,0 UV-I -4,4 C -10,7 C 15,4 km/h (3 Bft)
30.01.2010 06:35 -0,9 C 0,9 C -1,1 C -2,5 C -5,8 C 0,0 C 77 % 83 % 0 % 985,2 hPa 0,0 l/m 12,1 km/h (2 Bft) W-SW 247 0 min 0,0 UV-I -4,4 C -10,9 C 15,9 km/h (3 Bft)
30.01.2010 06:40 -0,9 C 0,9 C -1,2 C -2,0 C -5,4 C 0,0 C 78 % 84 % 0 % 985,6 hPa 0,0 l/m 10,9 km/h (2 Bft) SW 225 0 min 0,0 UV-I -4,2 C -10,0 C 10,6 km/h (2 Bft)
30.01.2010 06:45 -0,9 C 0,9 C -1,2 C -1,9 C -4,9 C 0,0 C 78 % 84 % 0 % 985,6 hPa 0,0 l/m 10,0 km/h (2 Bft) W 270 0 min 0,0 UV-I -4,2 C -9,2 C 9,2 km/h (2 Bft)
30.01.2010 06:50 -0,7 C 0,9 C -1,2 C -1,7 C -5,0 C 0,0 C 78 % 84 % 0 % 985,6 hPa 0,0 l/m 10,1 km/h (2 Bft) S-SW 202 0 min 0,0 UV-I -4,0 C -9,3 C 12,6 km/h (3 Bft)
30.01.2010 06:55 -0,8 C 0,9 C -1,1 C -1,8 C -4,9 C 0,0 C 78 % 85 % 0 % 985,6 hPa 0,0 l/m 10,3 km/h (2 Bft) S-SW 202 0 min 0,0 UV-I -4,1 C -9,3 C 14,6 km/h (3 Bft)
30.01.2010 07:00 -0,8 C 0,9 C -1,1 C -1,7 C -4,8 C 0,0 C 78 % 85 % 0 % 985,4 hPa 0,0 l/m 10,0 km/h (2 Bft) W-SW 247 0 min 0,0 UV-I -4,1 C -9,0 C 9,3 km/h (2 Bft)
30.01.2010 07:10 -0,8 C 0,9 C -1,2 C -1,7 C -4,5 C 0,0 C 79 % 86 % 0 % 985,4 hPa 0,0 l/m 8,9 km/h (2 Bft) S 180 0 min 0,0 UV-I -4,0 C -8,3 C 7,9 km/h (2 Bft)
30.01.2010 07:15 -0,8 C 0,9 C -1,1 C -2,0 C -4,5 C 0,0 C 79 % 86 % 0 % 985,4 hPa 0,0 l/m 9,0 km/h (2 Bft) SW 225 0 min 0,0 UV-I -4,0 C -8,4 C 13,8 km/h (3 Bft)
30.01.2010 07:20 -0,8 C 0,9 C -1,1 C -1,7 C -4,4 C 0,0 C 79 % 86 % 0 % 985,8 hPa 0,0 l/m 8,9 km/h (2 Bft) W-SW 247 0 min 0,0 UV-I -4,0 C -8,2 C 9,7 km/h (2 Bft)
30.01.2010 07:25 -0,7 C 0,9 C -0,9 C -1,6 C -4,6 C 0,0 C 80 % 86 % 0 % 985,8 hPa 0,0 l/m 10,0 km/h (2 Bft) SW 225 0 min 0,0 UV-I -3,7 C -8,8 C 9,5 km/h (2 Bft)
30.01.2010 07:30 -0,7 C 0,9 C -0,9 C -1,7 C -5,0 C 0,0 C 80 % 85 % 0 % 985,8 hPa 0,0 l/m 11,3 km/h (2 Bft) SW 225 0 min 0,0 UV-I -3,7 C -9,7 C 14,6 km/h (3 Bft)
30.01.2010 07:35 -0,7 C 0,9 C -0,9 C -2,1 C -5,0 C 0,0 C 79 % 85 % 0 % 985,8 hPa 0,0 l/m 11,4 km/h (2 Bft) S-SW 202 0 min 0,0 UV-I -3,9 C -9,7 C 12,6 km/h (3 Bft)
30.01.2010 07:40 -0,7 C 0,9 C -0,9 C -2,1 C -5,0 C 0,0 C 79 % 85 % 0 % 986,1 hPa 0,0 l/m 11,3 km/h (2 Bft) SW 225 0 min 0,0 UV-I -3,9 C -9,7 C 11,7 km/h (2 Bft)
30.01.2010 07:45 -0,7 C 0,9 C -0,9 C -1,7 C -5,1 C 0,0 C 79 % 84 % 0 % 986,1 hPa 0,0 l/m 11,7 km/h (2 Bft) SW 225 0 min 0,0 UV-I -3,9 C -9,9 C 18,3 km/h (3 Bft)
30.01.2010 07:50 -0,7 C 0,9 C -0,9 C -1,7 C -5,0 C 0,0 C 78 % 84 % 0 % 986,1 hPa 0,0 l/m 11,3 km/h (2 Bft) SW 225 0 min 0,0 UV-I -4,0 C -9,7 C 13,4 km/h (3 Bft)
30.01.2010 07:55 -0,7 C 0,9 C -1,1 C -1,7 C -5,1 C 0,0 C 78 % 84 % 0 % 986,1 hPa 0,0 l/m 11,7 km/h (2 Bft) SW 225 0 min 0,0 UV-I -4,0 C -9,9 C 19,6 km/h (3 Bft)
30.01.2010 08:00 -0,7 C 0,9 C -1,1 C -1,7 C -5,2 C 0,0 C 78 % 84 % 0 % 986,1 hPa 0,0 l/m 12,2 km/h (2 Bft) SW 225 0 min 0,0 UV-I -4,0 C -10,2 C 17,4 km/h (3 Bft)
30.01.2010 08:10 -0,7 C 0,9 C -1,1 C -2,2 C -5,2 C 0,0 C 78 % 83 % 0 % 986,1 hPa 0,0 l/m 12,2 km/h (2 Bft) SW 225 0 min 0,0 UV-I -4,0 C -10,2 C 15,0 km/h (3 Bft)
30.01.2010 08:15 -0,7 C 0,9 C -1,1 C -1,7 C -5,1 C 0,0 C 78 % 83 % 0 % 986,1 hPa 0,0 l/m 11,6 km/h (2 Bft) SW 225 0 min 0,0 UV-I -4,0 C -9,9 C 17,5 km/h (3 Bft)
30.01.2010 08:20 -0,5 C 0,9 C -0,9 C -1,6 C -4,9 C 0,0 C 77 % 84 % 0 % 986,5 hPa 0,0 l/m 10,9 km/h (2 Bft) W-SW 247 0 min 0,0 UV-I -4,0 C -9,4 C 7,6 km/h (2 Bft)
30.01.2010 08:25 -0,5 C 0,9 C -1,1 C -1,5 C -4,4 C 0,0 C 77 % 83 % 0 % 986,5 hPa 0,0 l/m 9,3 km/h (2 Bft) S-SO 157 0 min 0,0 UV-I -4,0 C -8,4 C 10,3 km/h (2 Bft)
30.01.2010 08:30 -0,5 C 0,9 C -1,1 C -1,8 C -4,4 C 0,0 C 77 % 83 % 0 % 986,5 hPa 0,0 l/m 9,3 km/h (2 Bft) N-NW 337 0 min 0,0 UV-I -4,0 C -8,4 C 13,5 km/h (3 Bft)
30.01.2010 08:35 -0,5 C 0,9 C -1,1 C -1,5 C -5,1 C 0,0 C 77 % 83 % 0 % 986,5 hPa 0,0 l/m 11,6 km/h (2 Bft) SW 225 0 min 0,0 UV-I -4,0 C -9,9 C 16,3 km/h (3 Bft)
30.01.2010 08:40 -0,5 C 0,9 C -0,9 C -2,0 C -5,1 C 0,0 C 77 % 83 % 0 % 987,1 hPa 0,0 l/m 11,7 km/h (2 Bft) W-SW 247 0 min 0,0 UV-I -4,0 C -9,9 C 14,5 km/h (3 Bft)
30.01.2010 08:45 -0,5 C 0,9 C -1,1 C -2,0 C -5,1 C 0,0 C 77 % 83 % 0 % 987,1 hPa 0,0 l/m 11,9 km/h (2 Bft) SW 225 0 min 0,0 UV-I -4,0 C -10,0 C 15,3 km/h (3 Bft)
30.01.2010 08:50 -0,5 C 0,9 C -0,9 C -1,6 C -5,2 C 0,0 C 77 % 83 % 0 % 987,1 hPa 0,0 l/m 12,4 km/h (3 Bft) S 180 0 min 0,0 UV-I -4,0 C -10,2 C 15,8 km/h (3 Bft)
30.01.2010 08:55 -0,5 C 0,9 C -0,9 C -1,6 C -5,3 C 0,0 C 76 % 82 % 0 % 987,1 hPa 0,0 l/m 13,2 km/h (3 Bft) W-SW 247 0 min 0,0 UV-I -4,2 C -10,5 C 16,7 km/h (3 Bft)
30.01.2010 09:00 -0,3 C 0,9 C -0,9 C -1,5 C -5,4 C 0,0 C 76 % 81 % 0 % 987,3 hPa 0,0 l/m 14,3 km/h (3 Bft) SW 225 0 min 0,0 UV-I -4,0 C -10,9 C 20,9 km/h (4 Bft)
30.01.2010 09:10 -0,4 C 0,9 C -0,9 C -1,5 C -5,2 C 0,0 C 75 % 81 % 0 % 987,3 hPa 0,0 l/m 13,2 km/h (3 Bft) SW 225 0 min 0,0 UV-I -4,3 C -10,4 C 12,2 km/h (2 Bft)
30.01.2010 09:15 -0,3 C 0,9 C -0,9 C -1,4 C -4,7 C 0,0 C 75 % 81 % 0 % 987,3 hPa 0,0 l/m 11,3 km/h (2 Bft) S-SW 202 0 min 0,0 UV-I -4,2 C -9,3 C 11,7 km/h (2 Bft)
30.01.2010 09:20 -0,3 C 0,9 C -0,9 C -1,3 C -4,1 C 0,0 C 75 % 81 % 0 % 987,7 hPa 0,0 l/m 9,3 km/h (2 Bft) S-SO 157 0 min 0,0 UV-I -4,2 C -8,0 C 10,3 km/h (2 Bft)
30.01.2010 09:25 -0,1 C 0,9 C -0,7 C -1,0 C -3,4 C 0,0 C 75 % 81 % 0 % 987,7 hPa 0,0 l/m 7,9 km/h (2 Bft) SO 135 0 min 0,0 UV-I -4,0 C -6,7 C 14,2 km/h (3 Bft)
30.01.2010 09:30 -0,1 C 0,9 C -0,8 C -0,9 C -3,6 C 0,0 C 75 % 81 % 0 % 987,7 hPa 0,0 l/m 9,0 km/h (2 Bft) W-SW 247 0 min 0,0 UV-I -4,0 C -7,3 C 12,9 km/h (3 Bft)
30.01.2010 09:35 -0,1 C 0,9 C -0,8 C -0,9 C -3,8 C 0,0 C 75 % 81 % 0 % 987,7 hPa 0,0 l/m 9,7 km/h (2 Bft) SW 225 0 min 0,0 UV-I -4,0 C -7,8 C 10,5 km/h (2 Bft)
30.01.2010 09:40 -0,1 C 0,9 C -0,8 C -0,9 C -3,6 C 0,0 C 75 % 81 % 0 % 988,2 hPa 0,0 l/m 9,3 km/h (2 Bft) SW 225 0 min 0,0 UV-I -4,0 C -7,4 C 10,8 km/h (2 Bft)
30.01.2010 09:45 -0,1 C 0,9 C -0,7 C -1,0 C -3,9 C 0,0 C 76 % 82 % 0 % 988,2 hPa 0,0 l/m 10,1 km/h (2 Bft) SW 225 0 min 0,0 UV-I -3,8 C -8,0 C 9,7 km/h (2 Bft)
30.01.2010 09:50 -0,1 C 0,9 C -0,8 C -1,0 C -4,1 C 0,0 C 76 % 82 % 0 % 988,2 hPa 0,0 l/m 10,0 km/h (2 Bft) S 180 0 min 0,0 UV-I -3,8 C -8,2 C 7,1 km/h (2 Bft)
30.01.2010 09:55 -0,2 C 0,9 C -0,9 C -1,1 C -3,9 C 0,0 C 76 % 83 % 0 % 988,2 hPa 0,0 l/m 9,0 km/h (2 Bft) W 270 0 min 0,0 UV-I -3,9 C -7,7 C 11,6 km/h (2 Bft)
30.01.2010 10:00 -0,1 C 0,9 C -0,7 C -1,4 C -3,9 C 0,0 C 76 % 83 % 0 % 988,5 hPa 0,0 l/m 9,0 km/h (2 Bft) SW 225 0 min 0,0 UV-I -3,8 C -7,7 C 7,1 km/h (2 Bft)
30.01.2010 10:10 -0,1 C 0,9 C -0,8 C -0,9 C -2,4 C 0,0 C 76 % 83 % 0 % 988,5 hPa 0,0 l/m 5,8 km/h (2 Bft) SW 225 0 min 0,0 UV-I -3,8 C -4,7 C 7,4 km/h (2 Bft)
30.01.2010 10:15 0,2 C 0,9 C -0,7 C -0,1 C -0,8 C 0,0 C 76 % 82 % 0 % 988,5 hPa 0,0 l/m 3,2 km/h (1 Bft) SW 225 0 min 0,0 UV-I -3,5 C -0,8 C 6,1 km/h (2 Bft)
30.01.2010 10:20 0,3 C 1,0 C -0,5 C 0,1 C -0,2 C 0,0 C 76 % 83 % 0 % 989,0 hPa 0,0 l/m 2,7 km/h (1 Bft) S 180 0 min 0,0 UV-I -3,4 C -0,2 C 5,5 km/h (1 Bft)
30.01.2010 10:25 0,5 C 0,9 C -0,5 C 0,1 C -0,7 C 0,0 C 76 % 82 % 0 % 989,0 hPa 0,0 l/m 3,7 km/h (1 Bft) SW 225 0 min 0,0 UV-I -3,2 C -0,7 C 7,6 km/h (2 Bft)
30.01.2010 10:30 0,6 C 0,9 C -0,4 C 0,1 C -0,8 C 0,0 C 75 % 82 % 0 % 989,0 hPa 0,0 l/m 4,3 km/h (1 Bft) N-NW 337 0 min 0,0 UV-I -3,3 C -0,8 C 2,1 km/h (1 Bft)
30.01.2010 10:35 0,7 C 0,9 C -0,1 C 0,1 C -1,1 C 0,0 C 74 % 81 % 0 % 989,0 hPa 0,0 l/m 5,3 km/h (1 Bft) O-NO 67 0 min 0,0 UV-I -3,4 C -3,0 C 1,8 km/h (1 Bft)
30.01.2010 10:40 0,8 C 0,9 C -0,1 C 0,0 C -1,6 C 0,0 C 75 % 81 % 0 % 989,0 hPa 0,0 l/m 6,9 km/h (2 Bft) S-SW 202 0 min 0,0 UV-I -3,1 C -4,2 C 12,7 km/h (3 Bft)
30.01.2010 10:45 0,9 C 0,9 C -0,1 C 0,2 C -2,3 C 0,0 C 74 % 81 % 0 % 989,0 hPa 0,0 l/m 9,2 km/h (2 Bft) SW 225 0 min 0,1 UV-I -3,2 C -5,8 C 5,5 km/h (1 Bft)
30.01.2010 10:50 0,9 C 0,9 C -0,1 C 0,1 C -2,6 C 0,0 C 73 % 81 % 0 % 989,0 hPa 0,0 l/m 10,0 km/h (2 Bft) SW 225 0 min 0,1 UV-I -3,4 C -6,4 C 12,7 km/h (3 Bft)
30.01.2010 10:55 1,1 C 0,8 C -0,1 C 0,3 C -2,1 C 0,0 C 72 % 79 % 0 % 989,0 hPa 0,0 l/m 8,9 km/h (2 Bft) S-SW 202 0 min 0,1 UV-I -3,4 C -5,5 C 16,9 km/h (3 Bft)
30.01.2010 11:00 0,9 C 0,8 C -0,1 C 0,2 C -2,5 C 0,0 C 72 % 79 % 0 % 989,2 hPa 0,0 l/m 9,8 km/h (2 Bft) SW 225 0 min 0,1 UV-I -3,6 C -6,2 C 11,9 km/h (2 Bft)
30.01.2010 11:10 0,8 C 0,9 C -0,1 C -0,1 C -3,1 C 0,0 C 72 % 79 % 0 % 989,2 hPa 0,0 l/m 10,3 km/h (2 Bft) W-SW 247 0 min 0,0 UV-I -3,7 C -7,1 C 8,4 km/h (2 Bft)
30.01.2010 11:15 0,9 C 0,9 C -0,1 C -0,1 C -3,3 C 0,0 C 71 % 79 % 0 % 989,2 hPa 0,0 l/m 11,3 km/h (2 Bft) S-SW 202 0 min 0,0 UV-I -3,7 C -7,6 C 15,3 km/h (3 Bft)
30.01.2010 11:20 1,1 C 0,9 C -0,1 C 0,0 C -3,4 C 0,0 C 71 % 79 % 0 % 989,8 hPa 0,0 l/m 11,6 km/h (2 Bft) SW 225 0 min 0,0 UV-I -3,6 C -7,8 C 13,2 km/h (3 Bft)
30.01.2010 11:25 1,2 C 0,8 C 0,1 C 0,1 C -3,3 C 0,0 C 71 % 78 % 0 % 989,8 hPa 0,0 l/m 12,2 km/h (2 Bft) W-SW 247 0 min 0,1 UV-I -3,5 C -7,8 C 10,8 km/h (2 Bft)
30.01.2010 11:30 1,3 C 0,8 C -0,1 C 0,2 C -3,2 C 0,0 C 71 % 79 % 0 % 989,8 hPa 0,0 l/m 11,9 km/h (2 Bft) SW 225 0 min 0,1 UV-I -3,4 C -7,7 C 11,9 km/h (2 Bft)
30.01.2010 11:35 1,3 C 0,8 C 0,1 C 0,2 C -3,1 C 0,0 C 71 % 78 % 0 % 989,8 hPa 0,0 l/m 11,6 km/h (2 Bft) W-SW 247 0 min 0,1 UV-I -3,4 C -7,5 C 13,8 km/h (3 Bft)
30.01.2010 11:40 1,2 C 0,8 C 0,1 C 0,2 C -2,8 C 0,0 C 71 % 78 % 0 % 989,8 hPa 0,0 l/m 10,5 km/h (2 Bft) W-SW 247 0 min 0,1 UV-I -3,5 C -6,8 C 15,9 km/h (3 Bft)
30.01.2010 11:45 1,3 C 0,8 C 0,0 C 0,3 C -2,6 C 0,0 C 71 % 79 % 0 % 989,8 hPa 0,0 l/m 9,5 km/h (2 Bft) W-SW 247 0 min 0,0 UV-I -3,4 C -6,3 C 10,0 km/h (2 Bft)
30.01.2010 11:50 1,2 C 0,8 C 0,0 C 0,2 C -2,8 C 0,0 C 71 % 79 % 0 % 989,8 hPa 0,0 l/m 9,8 km/h (2 Bft) SW 225 0 min 0,0 UV-I -3,5 C -6,6 C 8,7 km/h (2 Bft)
30.01.2010 11:55 1,2 C 0,8 C -0,1 C 0,3 C -2,5 C 0,0 C 72 % 79 % 0 % 989,8 hPa 0,0 l/m 8,7 km/h (2 Bft) SW 225 0 min 0,0 UV-I -3,3 C -5,9 C 7,9 km/h (2 Bft)
30.01.2010 12:00 1,0 C 0,9 C -0,1 C 0,2 C -2,4 C 0,0 C 72 % 80 % 0 % 990,3 hPa 0,0 l/m 8,0 km/h (2 Bft) SW 225 0 min 0,0 UV-I -3,5 C -5,6 C 13,0 km/h (3 Bft)
30.01.2010 12:10 0,8 C 0,9 C -0,3 C -0,1 C -3,6 C 0,0 C 73 % 80 % 0 % 990,3 hPa 0,0 l/m 10,6 km/h (2 Bft) S-SW 202 0 min 0,0 UV-I -3,5 C -7,8 C 9,7 km/h (2 Bft)
30.01.2010 12:12 0,9 C 0,9 C -0,3 C 0,2 C -3,2 C 0,0 C 73 % 80 % 0 % 990,3 hPa 0,0 l/m 9,2 km/h (2 Bft) SW 225 0 min 0,0 UV-I -3,4 C -6,9 C 13,4 km/h (3 Bft)
30.01.2010 12:17 0,8 C 0,9 C -0,3 C -0,5 C -3,2 C 0,0 C 73 % 80 % 0 % 990,6 hPa 0,0 l/m 9,3 km/h (2 Bft) SW 225 0 min 0,0 UV-I -3,5 C -6,9 C 9,7 km/h (2 Bft)
30.01.2010 12:21 0,8 C 0,9 C -0,3 C -0,5 C -3,2 C 0,0 C 73 % 80 % 0 % 990,6 hPa 0,0 l/m 9,3 km/h (2 Bft) SW 225 0 min 0,0 UV-I -3,5 C -6,9 C 9,7 km/h (2 Bft)
30.01.2010 12:25 0,8 C 0,9 C -0,3 C -0,2 C -3,6 C 0,0 C 73 % 80 % 0 % 990,6 hPa 0,0 l/m 10,5 km/h (2 Bft) S-SW 202 0 min 0,0 UV-I -3,5 C -7,8 C 19,8 km/h (3 Bft)
30.01.2010 12:30 0,8 C 0,9 C -0,4 C -0,3 C -3,8 C 0,0 C 74 % 81 % 0 % 990,6 hPa 0,0 l/m 11,6 km/h (2 Bft) SW 225 0 min 0,0 UV-I -3,3 C -8,3 C 12,7 km/h (3 Bft)
30.01.2010 12:35 1,1 C 1,0 C -0,3 C -0,5 C -3,8 C 0,0 C 74 % 82 % 0 % 990,6 hPa 0,0 l/m 12,1 km/h (2 Bft) SW 225 0 min 0,1 UV-I -3,0 C -8,4 C 13,0 km/h (3 Bft)
30.01.2010 12:40 1,1 C 1,0 C -0,3 C -0,1 C -3,6 C 0,0 C 76 % 83 % 0 % 991,0 hPa 0,0 l/m 11,6 km/h (2 Bft) SW 225 0 min 0,1 UV-I -2,6 C -8,1 C 19,3 km/h (3 Bft)
30.01.2010 12:45 1,1 C 1,0 C -0,4 C -0,1 C -3,7 C 0,0 C 77 % 84 % 0 % 991,0 hPa 0,0 l/m 12,2 km/h (2 Bft) S 180 0 min 0,1 UV-I -2,5 C -8,3 C 14,0 km/h (3 Bft)
30.01.2010 12:50 1,2 C 1,0 C -0,4 C 0,0 C -3,4 C 0,0 C 77 % 84 % 0 % 991,0 hPa 0,0 l/m 11,6 km/h (2 Bft) SW 225 0 min 0,1 UV-I -2,4 C -7,8 C 14,6 km/h (3 Bft)
30.01.2010 12:55 1,5 C 1,0 C -0,3 C 0,3 C -3,1 C 0,0 C 77 % 85 % 0 % 991,0 hPa 0,0 l/m 10,5 km/h (2 Bft) SW 225 0 min 0,1 UV-I -2,1 C -7,2 C 16,6 km/h (3 Bft)
30.01.2010 13:00 1,5 C 1,1 C -0,3 C 0,4 C -2,7 C 0,0 C 77 % 85 % 0 % 990,9 hPa 0,0 l/m 10,1 km/h (2 Bft) S-SW 202 0 min 0,1 UV-I -2,1 C -6,6 C 11,4 km/h (2 Bft)
30.01.2010 13:10 1,6 C 1,1 C -0,1 C 0,6 C -2,3 C 0,0 C 78 % 87 % 0 % 990,9 hPa 0,0 l/m 8,4 km/h (2 Bft) W-SW 247 0 min 0,1 UV-I -1,8 C -5,6 C 15,0 km/h (3 Bft)
30.01.2010 13:15 1,6 C 1,1 C -0,1 C 0,6 C -2,4 C 0,0 C 78 % 86 % 0 % 990,9 hPa 0,0 l/m 9,0 km/h (2 Bft) SW 225 0 min 0,1 UV-I -1,8 C -5,9 C 12,2 km/h (2 Bft)
30.01.2010 13:20 1,6 C 1,1 C -0,1 C 0,6 C -2,3 C 0,0 C 78 % 87 % 0 % 991,1 hPa 0,0 l/m 8,5 km/h (2 Bft) SW 225 0 min 0,1 UV-I -1,8 C -5,6 C 14,2 km/h (3 Bft)
30.01.2010 13:25 1,5 C 1,1 C -0,3 C 0,5 C -2,6 C 0,0 C 78 % 86 % 0 % 991,1 hPa 0,0 l/m 8,5 km/h (2 Bft) SW 225 0 min 0,1 UV-I -1,9 C -6,0 C 7,6 km/h (2 Bft)
30.01.2010 13:30 1,5 C 1,1 C -0,3 C 0,4 C -3,0 C 0,0 C 78 % 86 % 0 % 991,1 hPa 0,0 l/m 9,3 km/h (2 Bft) SW 225 0 min 0,1 UV-I -1,9 C -6,7 C 11,4 km/h (2 Bft)
30.01.2010 13:35 1,5 C 1,1 C -0,3 C 0,3 C -3,3 C 0,0 C 79 % 87 % 0 % 991,1 hPa 0,0 l/m 9,8 km/h (2 Bft) W-SW 247 0 min 0,1 UV-I -1,7 C -7,2 C 8,9 km/h (2 Bft)
30.01.2010 13:40 1,3 C 1,2 C -0,3 C 0,1 C -3,2 C 0,0 C 79 % 88 % 0 % 991,2 hPa 0,0 l/m 9,5 km/h (2 Bft) W-SW 247 0 min 0,1 UV-I -1,9 C -7,0 C 12,7 km/h (3 Bft)
30.01.2010 13:45 1,3 C 1,2 C -0,4 C 0,2 C -3,1 C 0,0 C 80 % 88 % 0 % 991,2 hPa 0,0 l/m 9,2 km/h (2 Bft) SW 225 0 min 0,1 UV-I -1,8 C -6,8 C 12,2 km/h (2 Bft)
30.01.2010 13:50 1,2 C 1,2 C -0,4 C 0,1 C -3,2 C 0,0 C 80 % 88 % 0 % 991,2 hPa 0,0 l/m 9,3 km/h (2 Bft) SW 225 0 min 0,1 UV-I -1,9 C -6,9 C 8,5 km/h (2 Bft)
30.01.2010 13:55 1,3 C 1,2 C -0,3 C 0,2 C -3,0 C 0,0 C 80 % 88 % 0 % 991,2 hPa 0,0 l/m 8,9 km/h (2 Bft) S-SW 202 0 min 0,1 UV-I -1,8 C -6,6 C 9,8 km/h (2 Bft)
30.01.2010 14:00 1,5 C 1,2 C -0,1 C 0,4 C -2,6 C 0,0 C 80 % 88 % 0 % 991,2 hPa 0,0 l/m 7,9 km/h (2 Bft) S-SO 157 0 min 0,1 UV-I -1,6 C -5,8 C 8,4 km/h (2 Bft)
30.01.2010 14:10 1,0 C 1,3 C -0,3 C -0,1 C -2,4 C 0,0 C 80 % 89 % 0 % 991,2 hPa 0,0 l/m 6,8 km/h (2 Bft) SW 225 0 min 0,1 UV-I -2,1 C -5,1 C 5,3 km/h (1 Bft)
30.01.2010 14:15 0,9 C 1,3 C -0,4 C -0,1 C -2,2 C 0,0 C 81 % 89 % 0 % 991,2 hPa 0,0 l/m 5,6 km/h (1 Bft) W-SW 247 0 min 0,1 UV-I -2,0 C -4,4 C 5,0 km/h (1 Bft)
30.01.2010 14:20 0,8 C 1,3 C -0,3 C -0,1 C -1,9 C 0,0 C 81 % 89 % 0 % 991,6 hPa 0,0 l/m 5,0 km/h (1 Bft) W 270 0 min 0,1 UV-I -2,1 C -3,7 C 3,5 km/h (1 Bft)
30.01.2010 14:25 0,8 C 1,2 C -0,3 C 0,1 C -1,2 C 0,0 C 81 % 89 % 0 % 991,6 hPa 0,0 l/m 4,5 km/h (1 Bft) W-SW 247 0 min 0,1 UV-I -2,1 C -1,2 C 2,9 km/h (1 Bft)
30.01.2010 14:30 0,8 C 1,2 C -0,1 C 0,2 C -1,1 C 0,0 C 81 % 89 % 0 % 991,6 hPa 0,0 l/m 4,7 km/h (1 Bft) SW 225 0 min 0,1 UV-I -2,1 C -2,7 C 8,0 km/h (2 Bft)
30.01.2010 14:35 0,9 C 1,1 C 0,3 C 0,3 C -0,8 C 0,0 C 80 % 87 % 0 % 991,6 hPa 0,0 l/m 5,8 km/h (2 Bft) S 180 0 min 0,0 UV-I -2,2 C -2,9 C 7,4 km/h (2 Bft)
30.01.2010 14:40 0,9 C 1,1 C 0,4 C 0,2 C -1,3 C 0,0 C 80 % 86 % 0 % 991,7 hPa 0,0 l/m 6,4 km/h (2 Bft) W-SW 247 0 min 0,0 UV-I -2,2 C -3,7 C 10,5 km/h (2 Bft)
30.01.2010 14:45 0,8 C 1,1 C 0,4 C 0,0 C -1,5 C 0,0 C 80 % 85 % 0 % 991,7 hPa 0,0 l/m 6,9 km/h (2 Bft) W-SW 247 0 min 0,0 UV-I -2,2 C -4,1 C 9,8 km/h (2 Bft)
30.01.2010 14:50 0,8 C 1,1 C 0,5 C -0,1 C -1,8 C 0,0 C 79 % 84 % 0 % 991,7 hPa 0,0 l/m 6,8 km/h (2 Bft) S-SW 202 0 min 0,0 UV-I -2,4 C -4,4 C 8,9 km/h (2 Bft)
30.01.2010 14:55 0,8 C 1,1 C 0,2 C 0,0 C -1,7 C 0,0 C 79 % 84 % 0 % 991,7 hPa 0,0 l/m 6,6 km/h (2 Bft) SW 225 0 min 0,0 UV-I -2,4 C -4,2 C 9,0 km/h (2 Bft)
30.01.2010 15:00 0,7 C 1,1 C -0,1 C -0,2 C -2,0 C 0,0 C 79 % 84 % 0 % 992,0 hPa 0,0 l/m 6,6 km/h (2 Bft) W 270 0 min 0,0 UV-I -2,5 C -4,6 C 7,7 km/h (2 Bft)
30.01.2010 15:10 0,7 C 1,0 C -0,4 C 0,0 C -1,3 C 0,0 C 78 % 84 % 0 % 992,0 hPa 0,0 l/m 6,0 km/h (2 Bft) SW 225 0 min 0,0 UV-I -2,7 C -3,5 C 8,7 km/h (2 Bft)
30.01.2010 15:15 0,7 C 1,0 C -0,3 C 0,2 C -0,9 C 0,0 C 77 % 84 % 0 % 992,0 hPa 0,0 l/m 6,0 km/h (2 Bft) SW 225 0 min 0,0 UV-I -2,9 C -3,1 C 4,3 km/h (1 Bft)
30.01.2010 15:20 0,8 C 1,0 C -0,4 C 0,4 C -0,3 C 0,0 C 77 % 83 % 0 % 992,0 hPa 0,0 l/m 5,5 km/h (1 Bft) N 360 0 min 0,0 UV-I -2,8 C -2,2 C 3,5 km/h (1 Bft)
30.01.2010 15:25 1,0 C 1,0 C -0,1 C 1,2 C 1,2 C 0,2 C 77 % 83 % 5 % 992,0 hPa 0,0 l/m 2,7 km/h (1 Bft) W-SW 247 0 min 0,0 UV-I -2,6 C 1,2 C 2,4 km/h (1 Bft)
30.01.2010 15:30 0,8 C 1,0 C -0,4 C 1,3 C 1,3 C 0,5 C 76 % 84 % 13 % 992,0 hPa 0,0 l/m 1,8 km/h (1 Bft) SW 225 0 min 0,0 UV-I -2,9 C 1,3 C 2,9 km/h (1 Bft)
30.01.2010 15:35 0,7 C 1,1 C -0,5 C 0,7 C 0,6 C 0,0 C 78 % 85 % 0 % 992,0 hPa 0,0 l/m 1,9 km/h (1 Bft) W 270 0 min 0,0 UV-I -2,7 C 0,6 C 0,0 km/h (0 Bft)
30.01.2010 15:40 0,5 C 1,0 C -0,6 C 0,4 C 0,3 C 0,0 C 78 % 85 % 0 % 992,4 hPa 0,0 l/m 1,9 km/h (1 Bft) NW 315 0 min 0,0 UV-I -2,9 C 0,3 C 3,5 km/h (1 Bft)
30.01.2010 15:45 0,3 C 1,0 C -0,7 C 0,1 C -0,4 C 0,0 C 77 % 84 % 0 % 992,4 hPa 0,0 l/m 2,6 km/h (1 Bft) NW 315 0 min 0,0 UV-I -3,2 C -0,4 C 4,2 km/h (1 Bft)
30.01.2010 15:50 0,0 C 1,0 C -0,9 C -0,3 C -0,8 C 0,0 C 77 % 85 % 0 % 992,4 hPa 0,0 l/m 2,6 km/h (1 Bft) N 360 0 min 0,0 UV-I -3,5 C -0,8 C 4,5 km/h (1 Bft)
30.01.2010 15:55 -0,3 C 1,0 C -1,2 C -0,7 C -1,6 C 0,0 C 78 % 85 % 0 % 992,4 hPa 0,0 l/m 2,9 km/h (1 Bft) N-NW 337 0 min 0,0 UV-I -3,7 C -1,6 C 3,5 km/h (1 Bft)
30.01.2010 16:00 -0,3 C 1,0 C -1,3 C -0,9 C -2,1 C 0,0 C 78 % 85 % 0 % 992,9 hPa 0,0 l/m 3,4 km/h (1 Bft) N-NW 337 0 min 0,0 UV-I -3,7 C -2,1 C 3,9 km/h (1 Bft)
30.01.2010 16:10 -0,3 C 1,0 C -1,5 C -0,7 C -1,6 C 0,0 C 77 % 85 % 0 % 992,9 hPa 0,0 l/m 1,9 km/h (1 Bft) W 270 0 min 0,0 UV-I -3,8 C -1,6 C 0,0 km/h (0 Bft)
30.01.2010 16:15 -0,5 C 1,0 C -1,6 C -0,9 C -1,8 C 0,0 C 77 % 84 % 0 % 992,9 hPa 0,0 l/m 1,4 km/h (1 Bft) S-SO 157 0 min 0,0 UV-I -4,0 C -1,8 C 1,9 km/h (1 Bft)
30.01.2010 16:20 -0,5 C 1,0 C -1,7 C -1,0 C -2,0 C 0,0 C 77 % 84 % 0 % 993,2 hPa 0,0 l/m 0,8 km/h (0 Bft) W 270 0 min 0,0 UV-I -4,0 C -2,0 C 2,1 km/h (1 Bft)
30.01.2010 16:25 -0,7 C 1,0 C -1,8 C -1,3 C -2,4 C 0,0 C 77 % 84 % 0 % 993,2 hPa 0,0 l/m 1,1 km/h (1 Bft) W-SW 247 0 min 0,0 UV-I -4,2 C -2,4 C 3,1 km/h (1 Bft)
30.01.2010 16:30 -0,8 C 1,0 C -1,7 C -1,3 C -2,4 C 0,0 C 77 % 84 % 0 % 993,2 hPa 0,0 l/m 1,0 km/h (0 Bft) S-SW 202 0 min 0,0 UV-I -4,3 C -2,4 C 0,0 km/h (0 Bft)
30.01.2010 16:35 -0,8 C 1,0 C -1,9 C -1,4 C -2,6 C 0,0 C 77 % 85 % 0 % 993,2 hPa 0,0 l/m 0,5 km/h (0 Bft) N-NO 22 0 min 0,0 UV-I -4,3 C -2,6 C 0,0 km/h (0 Bft)
30.01.2010 16:40 -0,8 C 0,9 C -1,9 C -1,4 C -2,6 C 0,0 C 77 % 84 % 0 % 993,8 hPa 0,0 l/m 0,3 km/h (0 Bft) W-NW 292 0 min 0,0 UV-I -4,3 C -2,6 C 3,1 km/h (1 Bft)
30.01.2010 16:45 -0,9 C 0,9 C -1,9 C -1,4 C -2,5 C 0,0 C 76 % 83 % 0 % 993,8 hPa 0,0 l/m 1,0 km/h (0 Bft) W 270 0 min 0,0 UV-I -4,6 C -2,5 C 0,0 km/h (0 Bft)
30.01.2010 16:50 -0,9 C 0,9 C -1,9 C -1,4 C -2,5 C 0,0 C 76 % 83 % 0 % 993,8 hPa 0,0 l/m 1,3 km/h (1 Bft) W 270 0 min 0,0 UV-I -4,6 C -2,5 C 5,0 km/h (1 Bft)
30.01.2010 16:55 -0,9 C 0,9 C -1,9 C -1,4 C -2,5 C 0,0 C 75 % 82 % 0 % 993,8 hPa 0,0 l/m 1,0 km/h (0 Bft) N-NO 22 0 min 0,0 UV-I -4,8 C -2,5 C 2,9 km/h (1 Bft)
30.01.2010 17:00 -1,1 C 0,9 C -2,0 C -1,6 C -2,5 C 0,0 C 76 % 83 % 0 % 994,3 hPa 0,0 l/m 1,0 km/h (0 Bft) W-SW 247 0 min 0,0 UV-I -4,8 C -2,5 C 0,0 km/h (0 Bft)
30.01.2010 17:10 -1,2 C 0,9 C -2,1 C -1,6 C -2,5 C 0,0 C 76 % 83 % 0 % 994,3 hPa 0,0 l/m 0,5 km/h (0 Bft) SO 135 0 min 0,0 UV-I -4,9 C -2,5 C 1,9 km/h (1 Bft)
30.01.2010 17:15 -1,3 C 0,9 C -2,1 C -1,7 C -2,6 C 0,0 C 76 % 83 % 0 % 994,3 hPa 0,0 l/m 1,8 km/h (1 Bft) SW 225 0 min 0,0 UV-I -5,0 C -2,6 C 5,6 km/h (1 Bft)
30.01.2010 17:20 -1,3 C 0,9 C -2,2 C -1,9 C -3,0 C 0,0 C 76 % 83 % 0 % 994,3 hPa 0,0 l/m 2,6 km/h (1 Bft) S 180 0 min 0,0 UV-I -5,0 C -3,0 C 4,8 km/h (1 Bft)
30.01.2010 17:25 -1,3 C 0,9 C -2,1 C -1,8 C -2,8 C 0,0 C 76 % 83 % 0 % 994,3 hPa 0,0 l/m 2,4 km/h (1 Bft) S-SW 202 0 min 0,0 UV-I -5,0 C -2,8 C 2,6 km/h (1 Bft)
30.01.2010 17:30 -1,4 C 0,9 C -2,1 C -1,8 C -2,7 C 0,0 C 76 % 83 % 0 % 994,3 hPa 0,0 l/m 1,8 km/h (1 Bft) NW 315 0 min 0,0 UV-I -5,1 C -2,7 C 5,6 km/h (1 Bft)
30.01.2010 17:35 -1,3 C 0,9 C -2,3 C -1,8 C -2,8 C 0,0 C 77 % 84 % 0 % 994,3 hPa 0,0 l/m 1,0 km/h (0 Bft) S 180 0 min 0,0 UV-I -4,8 C -2,8 C 2,3 km/h (1 Bft)
30.01.2010 17:40 -1,3 C 0,9 C -2,3 C -1,8 C -2,9 C 0,0 C 76 % 84 % 0 % 994,8 hPa 0,0 l/m 0,5 km/h (0 Bft) O-SO 112 0 min 0,0 UV-I -5,0 C -2,9 C 1,9 km/h (1 Bft)
30.01.2010 17:45 -1,6 C 0,9 C -2,5 C -2,1 C -3,2 C 0,0 C 77 % 85 % 0 % 994,8 hPa 0,0 l/m 0,3 km/h (0 Bft) SW 225 0 min 0,0 UV-I -5,1 C -3,2 C 2,3 km/h (1 Bft)
30.01.2010 17:50 -1,7 C 0,9 C -2,5 C -2,3 C -3,6 C 0,0 C 77 % 85 % 0 % 994,8 hPa 0,0 l/m 0,2 km/h (0 Bft) S-SW 202 0 min 0,0 UV-I -5,2 C -3,6 C 0,0 km/h (0 Bft)
30.01.2010 17:55 -1,9 C 0,9 C -2,8 C -2,6 C -4,1 C 0,0 C 77 % 84 % 0 % 994,8 hPa 0,0 l/m 0,5 km/h (0 Bft) SW 225 0 min 0,0 UV-I -5,4 C -4,1 C 1,9 km/h (1 Bft)
30.01.2010 18:00 -2,0 C 0,9 C -2,9 C -2,8 C -4,3 C 0,0 C 77 % 84 % 0 % 995,0 hPa 0,0 l/m 0,8 km/h (0 Bft) SW 225 0 min 0,0 UV-I -5,5 C -4,3 C 0,0 km/h (0 Bft)
30.01.2010 18:10 -2,1 C 1,1 C -3,1 C -2,9 C -4,6 C 0,0 C 78 % 85 % 0 % 995,0 hPa 0,0 l/m 1,3 km/h (1 Bft) N-NW 337 0 min 0,0 UV-I -5,4 C -4,6 C 0,0 km/h (0 Bft)
30.01.2010 18:15 -2,3 C 1,1 C -3,3 C -3,2 C -5,0 C 0,0 C 78 % 85 % 0 % 995,0 hPa 0,0 l/m 0,3 km/h (0 Bft) SW 225 0 min 0,0 UV-I -5,6 C -5,0 C 0,0 km/h (0 Bft)
30.01.2010 18:20 -2,4 C 1,1 C -3,5 C -3,3 C -5,1 C 0,0 C 78 % 85 % 0 % 995,6 hPa 0,0 l/m 0,0 km/h (0 Bft) NO 45 0 min 0,0 UV-I -5,7 C -5,1 C 0,0 km/h (0 Bft)
30.01.2010 18:25 -2,5 C 1,1 C -3,7 C -3,4 C -5,1 C 0,0 C 78 % 86 % 0 % 995,6 hPa 0,0 l/m 0,0 km/h (0 Bft) O-NO 67 0 min 0,0 UV-I -5,8 C -5,1 C 0,0 km/h (0 Bft)
30.01.2010 18:30 -2,5 C 1,1 C -3,7 C -3,3 C -5,0 C 0,0 C 79 % 86 % 0 % 995,6 hPa 0,0 l/m 0,0 km/h (0 Bft) O 90 0 min 0,0 UV-I -5,6 C -5,0 C 0,0 km/h (0 Bft)
30.01.2010 18:35 -2,5 C 1,1 C -3,8 C -3,3 C -5,0 C 0,0 C 79 % 86 % 0 % 995,6 hPa 0,0 l/m 0,0 km/h (0 Bft) N-NW 337 0 min 0,0 UV-I -5,6 C -5,0 C 0,0 km/h (0 Bft)
30.01.2010 18:40 -2,7 C 1,1 C -3,8 C -3,5 C -5,0 C 0,0 C 79 % 86 % 0 % 995,6 hPa 0,0 l/m 0,2 km/h (0 Bft) NW 315 0 min 0,0 UV-I -5,8 C -5,0 C 0,0 km/h (0 Bft)
30.01.2010 18:45 -2,5 C 1,1 C -3,6 C -3,3 C -4,9 C 0,0 C 80 % 87 % 0 % 995,6 hPa 0,0 l/m 0,3 km/h (0 Bft) W-SW 247 0 min 0,0 UV-I -5,5 C -4,9 C 3,5 km/h (1 Bft)
30.01.2010 18:50 -2,5 C 1,1 C -3,6 C -3,2 C -4,6 C 0,0 C 80 % 87 % 0 % 995,6 hPa 0,0 l/m 1,6 km/h (1 Bft) N-NO 22 0 min 0,0 UV-I -5,5 C -4,6 C 0,0 km/h (0 Bft)
30.01.2010 18:55 -2,7 C 1,1 C -3,7 C -3,3 C -4,5 C 0,0 C 80 % 87 % 0 % 995,6 hPa 0,0 l/m 1,8 km/h (1 Bft) W-SW 247 0 min 0,0 UV-I -5,7 C -4,5 C 0,0 km/h (0 Bft)
30.01.2010 19:00 -2,5 C 1,1 C -3,7 C -3,2 C -4,5 C 0,0 C 80 % 88 % 0 % 996,1 hPa 0,0 l/m 0,6 km/h (0 Bft) W-SW 247 0 min 0,0 UV-I -5,5 C -4,5 C 0,0 km/h (0 Bft)
30.01.2010 19:10 -2,7 C 1,1 C -3,7 C -3,3 C -4,4 C 0,0 C 80 % 88 % 0 % 996,1 hPa 0,0 l/m 0,2 km/h (0 Bft) W 270 0 min 0,0 UV-I -5,7 C -4,4 C 0,0 km/h (0 Bft)
30.01.2010 19:15 -2,8 C 1,1 C -3,7 C -3,3 C -4,4 C 0,0 C 80 % 88 % 0 % 996,1 hPa 0,0 l/m 0,0 km/h (0 Bft) O-NO 67 0 min 0,0 UV-I -5,8 C -4,4 C 0,0 km/h (0 Bft)
30.01.2010 19:20 -2,7 C 1,1 C -3,5 C -3,2 C -4,3 C 0,0 C 80 % 88 % 0 % 996,1 hPa 0,0 l/m 0,2 km/h (0 Bft) SW 225 0 min 0,0 UV-I -5,7 C -4,3 C 0,0 km/h (0 Bft)
30.01.2010 19:25 -2,7 C 1,1 C -3,5 C -3,2 C -4,3 C 0,0 C 80 % 88 % 0 % 996,1 hPa 0,0 l/m 0,2 km/h (0 Bft) S 180 0 min 0,0 UV-I -5,7 C -4,3 C 0,0 km/h (0 Bft)
30.01.2010 19:30 -2,5 C 1,1 C -3,3 C -3,1 C -4,2 C 0,0 C 80 % 88 % 0 % 996,1 hPa 0,0 l/m 0,0 km/h (0 Bft) N-NO 22 0 min 0,0 UV-I -5,5 C -4,2 C 0,0 km/h (0 Bft)
30.01.2010 19:35 -2,5 C 1,1 C -3,4 C -3,0 C -4,1 C 0,0 C 80 % 88 % 0 % 996,1 hPa 0,0 l/m 0,5 km/h (0 Bft) S-SW 202 0 min 0,0 UV-I -5,5 C -4,1 C 0,0 km/h (0 Bft)
30.01.2010 19:40 -2,5 C 1,1 C -3,3 C -3,0 C -4,1 C 0,0 C 80 % 87 % 0 % 996,9 hPa 0,0 l/m 1,0 km/h (0 Bft) SW 225 0 min 0,0 UV-I -5,5 C -4,1 C 3,9 km/h (1 Bft)
30.01.2010 19:45 -2,7 C 1,1 C -3,6 C -3,2 C -4,2 C 0,0 C 80 % 87 % 0 % 996,9 hPa 0,0 l/m 1,9 km/h (1 Bft) S-SW 202 0 min 0,0 UV-I -5,7 C -4,2 C 0,0 km/h (0 Bft)
30.01.2010 19:50 -2,7 C 1,1 C -3,5 C -3,2 C -4,3 C 0,0 C 80 % 88 % 0 % 996,9 hPa 0,0 l/m 1,8 km/h (1 Bft) N 360 0 min 0,0 UV-I -5,7 C -4,3 C 0,0 km/h (0 Bft)
30.01.2010 19:55 -2,7 C 1,1 C -3,6 C -3,2 C -4,3 C 0,0 C 81 % 88 % 0 % 996,9 hPa 0,0 l/m 0,2 km/h (0 Bft) SW 225 0 min 0,0 UV-I -5,5 C -4,3 C 0,0 km/h (0 Bft)
30.01.2010 20:00 -2,7 C 1,1 C -3,5 C -3,2 C -4,3 C 0,0 C 81 % 88 % 0 % 997,4 hPa 0,0 l/m 0,2 km/h (0 Bft) W-SW 247 0 min 0,0 UV-I -5,5 C -4,3 C 0,0 km/h (0 Bft)
30.01.2010 20:10 -2,8 C 1,1 C -3,5 C -3,3 C -4,2 C 0,0 C 81 % 88 % 0 % 997,4 hPa 0,0 l/m 0,0 km/h (0 Bft) N-NO 22 0 min 0,0 UV-I -5,6 C -4,2 C 0,0 km/h (0 Bft)
30.01.2010 20:15 -2,7 C 1,1 C -3,3 C -3,2 C -4,1 C 0,0 C 81 % 88 % 0 % 997,4 hPa 0,0 l/m 0,0 km/h (0 Bft) W-SW 247 0 min 0,0 UV-I -5,5 C -4,1 C 0,0 km/h (0 Bft)
30.01.2010 20:20 -2,5 C 1,1 C -3,3 C -3,0 C -3,9 C 0,0 C 81 % 88 % 0 % 997,3 hPa 0,0 l/m 0,2 km/h (0 Bft) SW 225 0 min 0,0 UV-I -5,3 C -3,9 C 1,8 km/h (1 Bft)
30.01.2010 20:25 -2,6 C 1,1 C -3,3 C -3,0 C -3,8 C 0,0 C 81 % 88 % 0 % 997,3 hPa 0,0 l/m 0,3 km/h (0 Bft) W-SW 247 0 min 0,0 UV-I -5,4 C -3,8 C 1,8 km/h (1 Bft)
30.01.2010 20:30 -2,5 C 1,1 C -3,3 C -2,9 C -3,7 C 0,0 C 81 % 88 % 0 % 997,3 hPa 0,0 l/m 0,5 km/h (0 Bft) W 270 0 min 0,0 UV-I -5,3 C -3,7 C 0,0 km/h (0 Bft)
30.01.2010 20:35 -2,5 C 1,1 C -3,2 C -2,9 C -3,7 C 0,0 C 81 % 88 % 0 % 997,3 hPa 0,0 l/m 0,5 km/h (0 Bft) W 270 0 min 0,0 UV-I -5,3 C -3,7 C 3,1 km/h (1 Bft)
30.01.2010 20:40 -2,5 C 1,1 C -3,1 C -2,9 C -3,6 C 0,0 C 81 % 87 % 0 % 997,8 hPa 0,0 l/m 0,8 km/h (0 Bft) N-NO 22 0 min 0,0 UV-I -5,3 C -3,6 C 2,7 km/h (1 Bft)
30.01.2010 20:45 -2,5 C 1,1 C -3,1 C -2,9 C -3,6 C 0,0 C 81 % 87 % 0 % 997,8 hPa 0,0 l/m 0,6 km/h (0 Bft) NW 315 0 min 0,0 UV-I -5,3 C -3,6 C 0,0 km/h (0 Bft)
30.01.2010 20:50 -2,5 C 1,1 C -3,1 C -2,9 C -3,7 C 0,0 C 81 % 88 % 0 % 997,8 hPa 0,0 l/m 0,2 km/h (0 Bft) N-NW 337 0 min 0,0 UV-I -5,3 C -3,7 C 1,6 km/h (1 Bft)
30.01.2010 20:55 -2,5 C 1,1 C -3,2 C -2,9 C -3,7 C 0,0 C 81 % 88 % 0 % 997,8 hPa 0,0 l/m 0,0 km/h (0 Bft) W-SW 247 0 min 0,0 UV-I -5,3 C -3,7 C 0,0 km/h (0 Bft)
30.01.2010 21:00 -2,5 C 1,1 C -3,1 C -2,9 C -3,7 C 0,0 C 81 % 88 % 0 % 998,4 hPa 0,0 l/m 0,0 km/h (0 Bft) S-SW 202 0 min 0,0 UV-I -5,3 C -3,7 C 0,0 km/h (0 Bft)
30.01.2010 21:10 -2,5 C 1,1 C -3,1 C -2,9 C -3,7 C 0,0 C 81 % 88 % 0 % 998,4 hPa 0,0 l/m 0,2 km/h (0 Bft) W-NW 292 0 min 0,0 UV-I -5,3 C -3,7 C 0,0 km/h (0 Bft)
30.01.2010 21:15 -2,5 C 1,1 C -3,1 C -2,9 C -3,7 C 0,0 C 81 % 88 % 0 % 998,4 hPa 0,0 l/m 0,2 km/h (0 Bft) W 270 0 min 0,0 UV-I -5,3 C -3,7 C 0,0 km/h (0 Bft)
30.01.2010 21:20 -2,5 C 1,1 C -3,2 C -2,9 C -3,8 C 0,0 C 81 % 88 % 0 % 998,3 hPa 0,0 l/m 0,0 km/h (0 Bft) W-NW 292 0 min 0,0 UV-I -5,3 C -3,8 C 0,0 km/h (0 Bft)
30.01.2010 21:25 -2,5 C 1,1 C -3,1 C -3,0 C -4,0 C 0,0 C 82 % 88 % 0 % 998,3 hPa 0,0 l/m 0,0 km/h (0 Bft) NO 45 0 min 0,0 UV-I -5,1 C -4,0 C 0,0 km/h (0 Bft)
30.01.2010 21:30 -2,5 C 1,1 C -3,1 C -3,0 C -3,9 C 0,0 C 81 % 88 % 0 % 998,3 hPa 0,0 l/m 0,0 km/h (0 Bft) NW 315 0 min 0,0 UV-I -5,3 C -3,9 C 0,0 km/h (0 Bft)
30.01.2010 21:35 -2,7 C 1,1 C -3,3 C -3,1 C -3,9 C 0,0 C 82 % 88 % 0 % 998,3 hPa 0,0 l/m 0,0 km/h (0 Bft) NW 315 0 min 0,0 UV-I -5,3 C -3,9 C 0,0 km/h (0 Bft)
30.01.2010 21:40 -2,7 C 1,1 C -3,3 C -3,1 C -3,9 C 0,0 C 81 % 88 % 0 % 998,8 hPa 0,0 l/m 0,0 km/h (0 Bft) NW 315 0 min 0,0 UV-I -5,5 C -3,9 C 0,0 km/h (0 Bft)
30.01.2010 21:45 -2,7 C 1,1 C -3,3 C -3,1 C -3,9 C 0,0 C 81 % 88 % 0 % 998,8 hPa 0,0 l/m 0,0 km/h (0 Bft) NW 315 0 min 0,0 UV-I -5,5 C -3,9 C 0,0 km/h (0 Bft)
30.01.2010 21:50 -2,7 C 1,1 C -3,3 C -3,1 C -3,9 C 0,0 C 82 % 88 % 0 % 998,8 hPa 0,0 l/m 0,0 km/h (0 Bft) N-NO 22 0 min 0,0 UV-I -5,3 C -3,9 C 0,0 km/h (0 Bft)
30.01.2010 21:55 -2,7 C 1,2 C -3,3 C -3,1 C -3,9 C 0,0 C 82 % 88 % 0 % 998,8 hPa 0,0 l/m 0,0 km/h (0 Bft) O 90 0 min 0,0 UV-I -5,3 C -3,9 C 0,0 km/h (0 Bft)
30.01.2010 22:00 -2,7 C 1,2 C -3,3 C -3,1 C -3,9 C 0,0 C 82 % 88 % 0 % 998,7 hPa 0,0 l/m 0,0 km/h (0 Bft) O 90 0 min 0,0 UV-I -5,3 C -3,9 C 0,0 km/h (0 Bft)
30.01.2010 22:10 -2,7 C 1,2 C -3,3 C -3,1 C -3,9 C 0,0 C 82 % 88 % 0 % 998,7 hPa 0,0 l/m 0,0 km/h (0 Bft) O-NO 67 0 min 0,0 UV-I -5,3 C -3,9 C 0,0 km/h (0 Bft)
30.01.2010 22:15 -2,7 C 1,2 C -3,3 C -3,1 C -3,9 C 0,0 C 82 % 89 % 0 % 998,7 hPa 0,0 l/m 0,0 km/h (0 Bft) O-NO 67 0 min 0,0 UV-I -5,3 C -3,9 C 0,0 km/h (0 Bft)
30.01.2010 22:20 -2,8 C 1,2 C -3,3 C -3,2 C -4,0 C 0,0 C 82 % 89 % 0 % 998,6 hPa 0,0 l/m 0,0 km/h (0 Bft) O-NO 67 0 min 0,0 UV-I -5,4 C -4,0 C 0,0 km/h (0 Bft)
30.01.2010 22:25 -2,7 C 1,2 C -3,3 C -3,1 C -4,0 C 0,0 C 82 % 89 % 0 % 998,6 hPa 0,0 l/m 0,0 km/h (0 Bft) SW 225 0 min 0,0 UV-I -5,3 C -4,0 C 0,0 km/h (0 Bft)
30.01.2010 22:30 -2,7 C 1,2 C -3,3 C -3,1 C -4,0 C 0,0 C 83 % 89 % 0 % 998,6 hPa 0,0 l/m 0,0 km/h (0 Bft) NW 315 0 min 0,0 UV-I -5,2 C -4,0 C 0,0 km/h (0 Bft)
30.01.2010 22:35 -2,7 C 1,2 C -3,3 C -3,1 C -4,0 C 0,0 C 83 % 89 % 0 % 998,6 hPa 0,0 l/m 0,0 km/h (0 Bft) NW 315 0 min 0,0 UV-I -5,2 C -4,0 C 0,0 km/h (0 Bft)
30.01.2010 22:40 -2,7 C 1,2 C -3,3 C -3,1 C -4,0 C 0,0 C 83 % 90 % 0 % 998,8 hPa 0,0 l/m 0,0 km/h (0 Bft) W-NW 292 0 min 0,0 UV-I -5,2 C -4,0 C 0,0 km/h (0 Bft)
30.01.2010 22:45 -2,7 C 1,2 C -3,3 C -3,2 C -4,1 C 0,0 C 83 % 90 % 0 % 998,8 hPa 0,0 l/m 0,0 km/h (0 Bft) O-NO 67 0 min 0,0 UV-I -5,2 C -4,1 C 0,0 km/h (0 Bft)
30.01.2010 22:50 -2,7 C 1,2 C -3,3 C -3,1 C -4,0 C 0,0 C 83 % 89 % 0 % 998,8 hPa 0,0 l/m 0,0 km/h (0 Bft) N 360 0 min 0,0 UV-I -5,2 C -4,0 C 0,0 km/h (0 Bft)
30.01.2010 22:55 -2,7 C 1,2 C -3,3 C -3,2 C -4,1 C 0,0 C 83 % 89 % 0 % 998,8 hPa 0,0 l/m 0,0 km/h (0 Bft) N 360 0 min 0,0 UV-I -5,2 C -4,1 C 0,0 km/h (0 Bft)
30.01.2010 23:00 -2,7 C 1,2 C -3,3 C -3,2 C -4,1 C 0,0 C 83 % 90 % 0 % 999,2 hPa 0,0 l/m 0,0 km/h (0 Bft) S-SW 202 0 min 0,0 UV-I -5,2 C -4,1 C 0,0 km/h (0 Bft)
30.01.2010 23:10 -2,9 C 1,3 C -3,7 C -3,5 C -4,6 C 0,0 C 83 % 89 % 0 % 999,2 hPa 0,0 l/m 0,0 km/h (0 Bft) S 180 0 min 0,0 UV-I -5,4 C -4,6 C 0,0 km/h (0 Bft)
30.01.2010 23:15 -3,3 C 1,3 C -3,9 C -3,9 C -5,0 C 0,0 C 83 % 89 % 0 % 999,2 hPa 0,0 l/m 0,0 km/h (0 Bft) O 90 0 min 0,0 UV-I -5,8 C -5,0 C 0,0 km/h (0 Bft)
30.01.2010 23:20 -3,4 C 1,3 C -4,1 C -4,0 C -5,3 C 0,0 C 83 % 89 % 0 % 999,6 hPa 0,0 l/m 0,0 km/h (0 Bft) O 90 0 min 0,0 UV-I -5,9 C -5,3 C 0,0 km/h (0 Bft)
30.01.2010 23:25 -3,6 C 1,3 C -4,5 C -4,3 C -5,7 C 0,0 C 83 % 88 % 0 % 999,6 hPa 0,0 l/m 0,0 km/h (0 Bft) O-SO 112 0 min 0,0 UV-I -6,1 C -5,7 C 0,0 km/h (0 Bft)
30.01.2010 23:30 -3,7 C 1,3 C -4,7 C -4,5 C -6,0 C 0,0 C 83 % 88 % 0 % 999,6 hPa 0,0 l/m 0,0 km/h (0 Bft) O-SO 112 0 min 0,0 UV-I -6,2 C -6,0 C 0,0 km/h (0 Bft)
30.01.2010 23:35 -3,9 C 1,2 C -4,9 C -4,7 C -6,3 C 0,0 C 83 % 89 % 0 % 999,6 hPa 0,0 l/m 0,0 km/h (0 Bft) O-SO 112 0 min 0,0 UV-I -6,4 C -6,3 C 0,0 km/h (0 Bft)
30.01.2010 23:40 -4,1 C 1,2 C -5,1 C -4,9 C -6,4 C 0,0 C 82 % 89 % 0 % 999,4 hPa 0,0 l/m 0,0 km/h (0 Bft) O-SO 112 0 min 0,0 UV-I -6,7 C -6,4 C 0,0 km/h (0 Bft)
30.01.2010 23:45 -4,1 C 1,2 C -5,5 C -5,0 C -6,7 C 0,0 C 83 % 88 % 0 % 999,4 hPa 0,0 l/m 0,0 km/h (0 Bft) O-SO 112 0 min 0,0 UV-I -6,5 C -6,7 C 0,0 km/h (0 Bft)
30.01.2010 23:50 -4,1 C 1,2 C -5,6 C -5,0 C -6,9 C 0,0 C 83 % 88 % 0 % 999,4 hPa 0,0 l/m 0,0 km/h (0 Bft) O-SO 112 0 min 0,0 UV-I -6,5 C -6,9 C 0,0 km/h (0 Bft)
30.01.2010 23:55 -4,3 C 1,2 C -5,5 C -5,3 C -7,2 C 0,0 C 84 % 89 % 0 % 999,4 hPa 0,0 l/m 0,0 km/h (0 Bft) NW 315 0 min 0,0 UV-I -6,6 C -7,2 C 0,0 km/h (0 Bft)
_ Min-Zeit 23:55 10:55 23:50 23:55 23:55 00:00 11:15 11:25 00:00 00:00 - 18:20 - - - 00:00 23:40 05:00 15:35
Minimum _ -4,3 C 0,8 C -5,6 C -5,3 C -7,2 C 0,0 C 71 % 78 % 0 % 980,6 hPa - 0,0 km/h (0 Bft) - - - 0,0 UV-I -6,7 C -11,2 C 0,0 km/h (0 Bft)
_ Max-Zeit 13:10 02:25 00:00 15:30 15:30 15:30 00:20 00:00 15:30 23:20 00:00 09:00 - - 00:00 10:45 00:20 15:30 05:35
Maximum _ 1,6 C 1,3 C 0,9 C 1,3 C 1,3 C 0,5 C 91 % 95 % 13 % 999,6 hPa 0,7 l/m 14,3 km/h
SW (3 Bft)
- - 0 min 0,1 UV-I -0,2 C 1,3 C 31,4 km/h
S-SW (5 Bft)
Durchschnitt _ -0,6 C 1,0 C -1,3 C -1,4 C -3,7 C 0,0 C 80 % 86 % 0 % 990,0 hPa #0,7 l/m 6,7 km/h (2 Bft) SW - #0 min. 0,1 UV-I -3,6 C -6,2 C 8,4 km/h (2 Bft)
2013 www.wetterstation-wechselburg.de